Weather History for Rankin Inlet, NU

Change the Weather History Date:

Saturday, January 12, 2013

  Actual Average Record
Temperature  
Mean Temperature -32 °F -  
Max Temperature -23 °F -14 °F 1 °F (2006)
Min Temperature -40 °F -26 °F -45 °F (2004)
Degree Days  
Heating Degree Days 98    
Moisture  
Dew Point -41 °F    
Average Humidity 65    
Maximum Humidity 69    
Minimum Humidity 46    
Precipitation  
Precipitation 0.00 in - - ()
Sea Level Pressure  
Sea Level Pressure 30.13 in    
Wind  
Wind Speed 3 mph ()    
Max Wind Speed 5 mph    
Max Gust Speed -    
Visibility 15.0 miles    
Events Snow    
Averages and records for this station are not official NWS values.
T = Trace of Precipitation, MM = Missing Value Source: Averaged Metar Reports

Daily Weather History Graph

Daily Weather History Graph

Search for Another Location

Airport:

Trip Planner

Search our weather history database for the weather conditions in past years. The results will help you decide how hot, cold, wet, or windy it might be!

Date:

Astronomy

Jan. 12, 2013 Rise Set
Actual Time 9:25 AM CST 3:08 PM CST
Civil Twilight 8:22 AM CST 4:11 PM CST
Nautical Twilight 7:21 AM CST 5:12 PM CST
Astronomical Twilight 6:26 AM CST 6:08 PM CST
Moon 9:03 AM CST (1/12) 5:26 PM CST (1/12)
Length of Visible Light 7h 48m
Length of Day
5h 42m
New Moon, 1% of the Moon is Illuminated
Jan 12
New Moon
Jan 18
First Quarter
Jan 26
Full
Feb 3
Last Quarter
Feb 10
New

Hourly Weather History & Observations

Time (CST) Temp. Windchill Dew Point Humidity Pressure Visibility Wind Dir Wind Speed Gust Speed Precip Events Conditions
12:00 AM -38.2 °F - -47.2 °F 61% 30.13 in 15.0 mi NNW 2.3 mph - N/A   Clear
1:00 AM -36.4 °F -52.4 °F -43.6 °F 67% 30.14 in 15.0 mi SSW 4.6 mph - N/A   Clear
2:00 AM -38.2 °F -54.5 °F -45.4 °F 67% 30.14 in 15.0 mi WNW 4.6 mph - N/A   Clear
3:00 AM -36.4 °F -49.4 °F -43.6 °F 67% 30.14 in 15.0 mi West 3.5 mph - N/A   Clear
4:00 AM -38.2 °F -51.5 °F -45.4 °F 67% 30.14 in 15.0 mi NNW 3.5 mph - N/A   Clear
5:00 AM -36.4 °F -49.4 °F -43.6 °F 67% 30.12 in 15.0 mi NW 3.5 mph - N/A   Clear
6:00 AM -35 °F - -43 °F 46% 30.12 in 15 mi Calm Calm - - Snow Snow
7:00 AM -36.4 °F -49.4 °F -45.4 °F 61% 30.12 in 15.0 mi North 3.5 mph - N/A   Clear
8:00 AM -36.4 °F - -43.6 °F 67% 30.12 in 15.0 mi North 2.3 mph - N/A   Clear
9:00 AM -34.6 °F - -41.8 °F 68% 30.13 in 15.0 mi Calm Calm - N/A   Partly Cloudy
10:00 AM -34.6 °F -47.4 °F -41.8 °F 68% 30.13 in 15.0 mi NNW 3.5 mph - N/A   Partly Cloudy
11:00 AM -34.6 °F - -41.8 °F 68% 30.14 in 15.0 mi Calm Calm - N/A   Partly Cloudy
12:00 PM -33 °F - -41 °F 47% 30.12 in 15 mi North 3.5 mph - - Snow Snow
12:00 PM -32.8 °F -45.3 °F -40.0 °F 68% 30.12 in 15.0 mi North 3.5 mph - N/A   Partly Cloudy
1:00 PM -34.6 °F -47.4 °F -41.8 °F 68% 30.12 in 15.0 mi North 3.5 mph - N/A   Scattered Clouds
2:00 PM -32.8 °F - -40.0 °F 68% 30.12 in 15.0 mi NE 2.3 mph - N/A   Partly Cloudy
3:00 PM -32.8 °F -48.2 °F -40.0 °F 68% 30.12 in 15.0 mi NNE 4.6 mph - N/A   Partly Cloudy
4:00 PM -31.0 °F - -38.2 °F 68% 30.13 in 15.0 mi NE 2.3 mph - N/A   Scattered Clouds
5:00 PM -31.0 °F -46.1 °F -38.2 °F 68% 30.13 in 15.0 mi ESE 4.6 mph - N/A   Partly Cloudy
6:00 PM -32 °F - -40 °F 46% 30.14 in 15 mi ENE 3.5 mph - - Snow Snow
6:00 PM -32.8 °F -45.3 °F -40.0 °F 68% 30.14 in 15.0 mi ENE 3.5 mph - N/A   Partly Cloudy
7:00 PM -29.2 °F - -36.4 °F 68% 30.13 in 15.0 mi NE 2.3 mph - N/A   Scattered Clouds
8:00 PM -27.4 °F -41.9 °F -34.6 °F 69% 30.12 in 15.0 mi NE 4.6 mph - N/A   Partly Cloudy
9:00 PM -27.4 °F -41.9 °F -34.6 °F 69% 30.12 in 15.0 mi NNE 4.6 mph - N/A   Partly Cloudy
10:00 PM -25.6 °F -37.1 °F -32.8 °F 69% 30.13 in 15.0 mi North 3.5 mph - N/A   Scattered Clouds
11:00 PM -23.8 °F -35.0 °F -31.0 °F 69% 30.13 in 15.0 mi NNE 3.5 mph - N/A   Mostly Cloudy